Location: Culleoka
(33.1312°N, 96.4919°W)
Time: 14:01:56
(UTC+00:00)

Lacrosse 5 rocket - Visible Passes

Search period start: 03 July 2022 00:00
Search period end: 13 July 2022 00:00
Orbit: 456 x 629 km, 57.0° (Epoch: 03 July)

Date Brightness Start Highest point End Pass type
(mag) Time Alt. Az. Time Alt. Az. Time Alt. Az.
03 Jul 2.1 03:04:05 10° NNW 03:07:46 38° NE 03:09:23 26° E visible
03 Jul 3.8 04:43:47 10° WNW 04:44:55 14° W 04:44:55 14° W visible
04 Jul 1.7 02:56:26 10° NNW 03:00:15 51° NE 03:02:11 27° ESE visible
04 Jul 4.0 04:37:01 10° W 04:37:43 12° W 04:37:43 12° W visible
05 Jul 1.3 02:48:50 10° NW 02:52:43 70° NE 02:55:04 24° SE visible
06 Jul 1.2 02:41:17 10° NW 02:45:11 85° SW 02:48:00 20° SE visible
07 Jul 1.6 02:33:47 10° NW 02:37:38 61° SW 02:41:00 14° SSE visible
08 Jul 2.2 02:26:21 10° NW 02:30:04 43° SW 02:33:57 10° SSE visible
09 Jul 2.7 02:18:59 10° WNW 02:22:28 31° WSW 02:26:06 10° S visible
10 Jul 3.3 02:11:43 10° WNW 02:14:50 23° WSW 02:18:06 10° S visible
11 Jul 3.7 02:04:39 10° W 02:07:13 17° WSW 02:09:53 10° SSW visible
